Content
SEND FEEDBACK

Daily
Averages
Monthly
Summary
France

LE HAVRE, FRANCE


Home > Europe > France
Elevation: 103 meters     Latitude: 49 31N     Longitude: 000 04E

WEATHER
 
SELECT A DAY
Number of Records: 176,732;   Date Range: 3/4/97 - 8/10/14
 
SHARE

PRINT THIS DATA

[ ← Previous Day ]
WEATHER ALMANAC - 14 FEBRUARY, 2013
[ Next Day → ]
[ °F ]   °C
Weather ElementAverageHighLow
Temperature5.8 °C9 °C (1:30 pm)2 °C (12:30 am)
Dewpoint4.7 °C8 °C (1:00 pm)0 °C (12:30 am)
Humidity92.2 %100 % (9:30 am)81 % (6:00 pm)
Barometer1014.6 hPa1019 hPa (12:30 am)1012.2 hPa (9:00 am)
Wind Speed21.4 km/h25.9 km/h (9:00 am)
Weather ElementAverage
Visibility7.9 km
Wind DirectionSW (225.5 °)

Weather ElementTotal
Precipitation---
Heating Degree Days12.8 (Base 18.3)
Averaged from 47 records on 14 February, 2013
WEATHER CONDITIONS BREAKOUT
WIND DIRECTION BREAKOUT
WEATHER BY HOUR - 14 FEBRUARY, 2013
[ °F ]   °C
Local TimeTemperatureDewpointHumidityBarometerVisibilityWind DirectionWind SpeedGust SpeedPrecipitationEventsConditions
12:30 AM2 °C0 °C87 %1019 hPa5 kmSSE (160°)20.4 km/hOvercast
1:00 AM2 °C0 °C87 %1019 hPaSSE (160°)20.4 km/hOvercast
1:30 AM2 °C1 °C93 %1019 hPa1.4 kmSSE (150°)20.4 km/hRainLight Rain
2:00 AM2 °C1 °C93 %1017.9 hPa5 kmSSE (160°)20.4 km/hOvercast
2:30 AM2 °C1 °C93 %1017.9 hPa1.8 kmSouth (170°)20.4 km/hLight Drizzle
3:00 AM2 °C1 °C93 %1017.3 hPa5 kmSouth (170°)20.4 km/hOvercast
3:30 AM2 °C1 °C93 %1017.3 hPa5 kmSouth (170°)18.5 km/hRainLight Rain
4:00 AM2 °C1 °C93 %1016.3 hPa5 kmSouth (170°)18.5 km/hOvercast
4:30 AM3 °C2 °C93 %1016.3 hPa6 kmSouth (170°)18.5 km/hOvercast
5:00 AM3 °C2 °C93 %1015.2 hPa6 kmSouth (170°)18.5 km/hOvercast
5:30 AM4 °C3 °C93 %1015.2 hPa6.9 kmSouth (180°)20.4 km/hOvercast
6:00 AM4 °C3 °C93 %1015.2 hPa8 kmSouth (180°)16.7 km/hOvercast
6:30 AM4 °C3 °C93 %1014.2 hPa8 kmSouth (170°)18.5 km/hOvercast
7:00 AM4 °C3 °C93 %1014.2 hPa9 kmSouth (180°)20.4 km/hOvercast
7:30 AM4 °C3 °C93 %1013.2 hPa1.8 kmSouth (180°)20.4 km/hRainLight Rain
8:00 AM5 °C4 °C93 %1013.2 hPa1.9 kmSouth (180°)20.4 km/hRainLight Rain
8:30 AM5 °C4 °C93 %1013.2 hPa1.6 kmSouth (180°)22.2 km/hRainLight Rain
9:00 AM5 °C4 °C93 %1012.2 hPa8 kmSouth (190°)25.9 km/hRainLight Rain
9:30 AM5 °C5 °C100 %1012.2 hPa10 kmSouth (190°)25.9 km/hOvercast
10:00 AM6 °C5 °C93 %1012.2 hPa10 kmSSW (200°)25.9 km/hOvercast
10:30 AM6 °C5 °C93 %1012.2 hPa5 kmSSW (200°)25.9 km/hOvercast
11:00 AM6 °C6 °C100 %1012.2 hPa10 kmSSW (210°)24.1 km/hOvercast
11:30 AM7 °C6 °C93 %1012.2 hPa10 kmSSW (210°)20.4 km/hOvercast
12:00 PM7 °C7 °C100 %1012.2 hPaSW (220°)20.4 km/hRainLight Rain
12:30 PM8 °C7 °C93 %1012.2 hPa8 kmSW (230°)22.2 km/hOvercast
1:00 PM8 °C8 °C100 %1013.2 hPa10 kmWSW (250°)22.2 km/hOvercast
1:30 PM9 °C8 °C93 %1013.2 hPa10 kmWest (280°)25.9 km/hOvercast
2:00 PM9 °C8 °C93 %1013.2 hPa10 kmWest (280°)24.1 km/hOvercast
2:30 PM9 °C8 °C93 %1013.2 hPa10 kmWest (280°)24.1 km/hOvercast
3:00 PM9 °C7 °C87 %1013.2 hPa10 kmWest (280°)25.9 km/hMostly Cloudy
3:30 PM9 °C7 °C87 %1013.2 hPa10 kmWest (280°)22.2 km/hMostly Cloudy
4:00 PM9 °C7 °C87 %1013.2 hPa10 kmWest (280°)20.4 km/hMostly Cloudy
4:30 PM8 °C6 °C87 %1014.2 hPa10 kmWNW (300°)24.1 km/hPartly Cloudy
5:00 PM8 °C6 °C87 %1014.2 hPa10 kmWNW (290°)24.1 km/hPartly Cloudy
5:30 PM8 °C6 °C87 %1014.2 hPa10 kmWest (280°)20.4 km/h
6:00 PM8 °C5 °C81 %1014.2 hPa10 kmWNW (290°)22.2 km/h
6:30 PM7 °C5 °C87 %1014.2 hPa10 kmWest (280°)22.2 km/hScattered Clouds
7:00 PM7 °C6 °C93 %1014.2 hPa10 kmWest (270°)20.4 km/hScattered Clouds
7:30 PM7 °C6 °C93 %1014.2 hPa10 kmWest (270°)20.4 km/hScattered Clouds
8:00 PM7 °C6 °C93 %1015.2 hPa10 kmWest (270°)22.2 km/h
8:30 PM7 °C6 °C93 %1015.2 hPa10 kmWest (270°)22.2 km/h
9:00 PM7 °C6 °C93 %1015.2 hPa10 kmWest (270°)22.2 km/h
9:30 PM7 °C6 °C93 %1015.2 hPa10 kmWest (270°)20.4 km/h
10:00 PM7 °C6 °C93 %1015.2 hPa10 kmWest (260°)20.4 km/h
10:30 PM7 °C6 °C93 %1016.3 hPa10 kmWest (270°)18.5 km/h
11:00 PM7 °C6 °C93 %1016.3 hPa10 kmWest (260°)18.5 km/hOvercast
11:30 PM7 °C6 °C93 %1016.3 hPa10 kmWest (270°)18.5 km/hOvercast
Hourly data recorded from LFOH, located 0 kilometers away from Le Havre, France







STORIES FROM OUR PARTNERS